| time (UTC) | temp C | wind direction | speed KPH | gust KPH | rain 1hr cm | rain 24hr cm | rain mn cm | humidity % | barometer mb |
| 20260903060046 | 26 | 227 | 3.2 | 4.8 | 0.00 | 0.00 | 0.00 | 78 | 1016.0 |
| 20260903055544 | 26 | 225 | 1.6 | 6.4 | 0.00 | 0.00 | 0.00 | 78 | 1016.0 |
| 20260903055043 | 26 | 225 | 1.6 | 6.4 | 0.00 | 0.00 | 0.00 | 78 | 1015.8 |
| 20260903054544 | 26 | 218 | 1.6 | 8.0 | 0.00 | 0.00 | 0.00 | 78 | 1015.8 |
| 20260903054045 | 26 | 219 | 3.2 | 8.0 | 0.00 | 0.00 | 0.00 | 77 | 1015.8 |
| 20260903053543 | 26 | 211 | 3.2 | 8.0 | 0.00 | 0.00 | 0.00 | 77 | 1015.8 |
| 20260903053042 | 26 | 240 | 3.2 | 8.0 | 0.00 | 0.00 | 0.00 | 77 | 1015.8 |
| 20260903052542 | 26 | 215 | 3.2 | 8.0 | 0.00 | 0.00 | 0.00 | 77 | 1015.7 |
| 20260903052142 | 26 | 224 | 3.2 | 8.0 | 0.00 | 0.00 | 0.00 | 77 | 1015.6 |
| 20260903051541 | 26 | 233 | 3.2 | 6.4 | 0.00 | 0.00 | 0.00 | 77 | 1015.6 |
| 20260903051041 | 26 | 233 | 3.2 | 8.0 | 0.00 | 0.00 | 0.00 | 78 | 1015.6 |
| 20260903050542 | 26 | 229 | 3.2 | 8.0 | 0.00 | 0.00 | 0.00 | 78 | 1015.6 |
| 20260903050041 | 26 | 230 | 3.2 | 6.4 | 0.00 | 0.00 | 0.00 | 78 | 1015.5 |
| 20260903045540 | 26 | 229 | 3.2 | 4.8 | 0.00 | 0.00 | 0.00 | 78 | 1015.7 |
| 20260903045039 | 26 | 229 | 1.6 | 4.8 | 0.00 | 0.00 | 0.00 | 78 | 1015.6 |
| 20260903044549 | 26 | 228 | 1.6 | 6.4 | 0.00 | 0.00 | 0.00 | 78 | 1015.6 |
| 20260903044039 | 26 | 228 | 1.6 | 6.4 | 0.00 | 0.00 | 0.00 | 78 | 1015.6 |
| 20260903043539 | 26 | 229 | 1.6 | 6.4 | 0.00 | 0.00 | 0.00 | 78 | 1015.6 |
| 20260903043037 | 26 | 229 | 3.2 | 6.4 | 0.00 | 0.00 | 0.00 | 78 | 1015.6 |
| 20260903042537 | 26 | 229 | 1.6 | 8.0 | 0.00 | 0.00 | 0.00 | 78 | 1015.6 |
| 20260903042040 | 26 | 242 | 3.2 | 6.4 | 0.00 | 0.00 | 0.00 | 78 | 1015.6 |
| 20260903041538 | 27 | 249 | 1.6 | 4.8 | 0.00 | 0.00 | 0.00 | 78 | 1015.6 |
| 20260903041036 | 27 | 249 | 0.0 | 3.2 | 0.00 | 0.00 | 0.00 | 78 | 1015.7 |
| 20260903040538 | 27 | 249 | 0.0 | 3.2 | 0.00 | 0.00 | 0.00 | 78 | 1015.7 |
| 20260903040035 | 27 | 249 | 0.0 | 3.2 | 0.00 | 0.00 | 0.00 | 78 | 1015.7 |
| 20260903035536 | 26 | 249 | 0.0 | 4.8 | 0.00 | 0.00 | 0.00 | 78 | 1015.7 |
| 20260903035034 | 26 | 249 | 3.2 | 6.4 | 0.00 | 0.00 | 0.00 | 78 | 1015.7 |
| 20260903034534 | 26 | 249 | 3.2 | 6.4 | 0.00 | 0.00 | 0.00 | 79 | 1015.7 |
| 20260903034033 | 26 | 258 | 3.2 | 6.4 | 0.00 | 0.00 | 0.00 | 79 | 1015.7 |
| 20260903033533 | 26 | 259 | 1.6 | 6.4 | 0.00 | 0.00 | 0.00 | 79 | 1015.7 |
| 20260903033034 | 26 | 260 | 1.6 | 4.8 | 0.00 | 0.00 | 0.00 | 79 | 1015.8 |
| 20260903032533 | 26 | 260 | 0.0 | 3.2 | 0.00 | 0.00 | 0.00 | 79 | 1015.8 |
| 20260903032032 | 26 | 260 | 0.0 | 1.6 | 0.00 | 0.00 | 0.00 | 78 | 1015.8 |
| 20260903031532 | 26 | 260 | 0.0 | 1.6 | 0.00 | 0.00 | 0.00 | 78 | 1015.8 |
| 20260903031032 | 26 | 260 | 0.0 | 0.0 | 0.00 | 0.00 | 0.00 | 78 | 1015.8 |
| 20260903030535 | 27 | 260 | 0.0 | 0.0 | 0.00 | 0.00 | 0.00 | 78 | 1015.9 |
| 20260903030034 | 27 | 260 | 0.0 | 0.0 | 0.00 | 0.00 | 0.00 | 78 | 1015.8 |
| 20260903025534 | 27 | 260 | 0.0 | 0.0 | 0.00 | 0.00 | 0.00 | 78 | 1015.8 |
| 20260903025032 | 27 | 260 | 0.0 | 0.0 | 0.00 | 0.00 | 0.00 | 77 | 1015.8 |
| 20260903024532 | 27 | 260 | 0.0 | 0.0 | 0.00 | 0.00 | 0.00 | 77 | 1015.8 |
| 20260903024034 | 27 | 260 | 0.0 | 0.0 | 0.00 | 0.00 | 0.00 | 77 | 1015.8 |
| 20260903023531 | 27 | 260 | 0.0 | 0.0 | 0.00 | 0.00 | 0.00 | 77 | 1015.8 |
| 20260903023034 | 27 | 260 | 0.0 | 0.0 | 0.00 | 0.00 | 0.00 | 77 | 1015.8 |
| 20260903022530 | 27 | 260 | 0.0 | 0.0 | 0.00 | 0.00 | 0.00 | 77 | 1015.8 |
| 20260903022031 | 27 | 260 | 0.0 | 1.6 | 0.00 | 0.00 | 0.00 | 76 | 1015.8 |
| 20260903021631 | 27 | 260 | 0.0 | 4.8 | 0.00 | 0.00 | 0.00 | 76 | 1015.8 |
| 20260903021030 | 27 | 260 | 1.6 | 4.8 | 0.00 | 0.00 | 0.00 | 76 | 1015.8 |
| 20260903020530 | 27 | 261 | 1.6 | 4.8 | 0.00 | 0.00 | 0.00 | 76 | 1015.8 |
| 20260903020038 | 27 | 261 | 1.6 | 3.2 | 0.00 | 0.00 | 0.00 | 76 | 1015.8 |
| 20260903015531 | 28 | 261 | 1.6 | 3.2 | 0.00 | 0.00 | 0.00 | 75 | 1015.8 |
| 20260903015029 | 28 | 261 | 0.0 | 0.0 | 0.00 | 0.00 | 0.00 | 73 | 1015.8 |
| 20260903014536 | 28 | 261 | 0.0 | 0.0 | 0.00 | 0.00 | 0.00 | 72 | 1015.8 |
| 20260903014031 | 28 | 261 | 0.0 | 0.0 | 0.00 | 0.00 | 0.00 | 71 | 1015.8 |
| 20260903013528 | 28 | 261 | 0.0 | 0.0 | 0.00 | 0.00 | 0.00 | 71 | 1015.7 |
| 20260903013029 | 28 | 261 | 0.0 | 3.2 | 0.00 | 0.00 | 0.00 | 71 | 1015.8 |
| 20260903012527 | 28 | 261 | 0.0 | 3.2 | 0.00 | 0.00 | 0.00 | 71 | 1015.7 |
| 20260903012027 | 29 | 261 | 1.6 | 4.8 | 0.00 | 0.00 | 0.00 | 71 | 1015.7 |
| 20260903011527 | 29 | 261 | 1.6 | 4.8 | 0.00 | 0.00 | 0.00 | 70 | 1015.5 |
| 20260903011030 | 29 | 261 | 1.6 | 4.8 | 0.00 | 0.00 | 0.00 | 70 | 1015.4 |
| 20260903010527 | 29 | 261 | 3.2 | 4.8 | 0.00 | 0.00 | 0.00 | 69 | 1015.4 |
| 20260903010031 | 30 | 261 | 3.2 | 4.8 | 0.00 | 0.00 | 0.00 | 69 | 1015.3 |
| 20260903005527 | 30 | 261 | 1.6 | 4.8 | 0.00 | 0.00 | 0.00 | 68 | 1015.3 |
| 20260903005027 | 30 | 261 | 1.6 | 4.8 | 0.00 | 0.00 | 0.00 | 67 | 1015.3 |
| 20260903004526 | 30 | 261 | 1.6 | 4.8 | 0.00 | 0.00 | 0.00 | 67 | 1015.3 |
| 20260903004026 | 30 | 261 | 0.0 | 3.2 | 0.00 | 0.00 | 0.00 | 66 | 1015.3 |
| 20260903003526 | 30 | 261 | 0.0 | 3.2 | 0.00 | 0.00 | 0.00 | 66 | 1015.3 |
| 20260903003025 | 30 | 261 | 0.0 | 3.2 | 0.00 | 0.00 | 0.00 | 65 | 1015.3 |
| 20260903002525 | 31 | 261 | 1.6 | 4.8 | 0.00 | 0.00 | 0.00 | 65 | 1015.2 |
| 20260903002027 | 31 | 261 | 1.6 | 4.8 | 0.00 | 0.00 | 0.00 | 65 | 1015.2 |
| 20260903001524 | 31 | 261 | 1.6 | 4.8 | 0.00 | 0.00 | 0.00 | 64 | 1015.3 |
| 20260903001026 | 31 | 261 | 1.6 | 4.8 | 0.00 | 0.00 | 0.00 | 64 | 1015.4 |
| 20260903000525 | 31 | 261 | 0.0 | 0.0 | 0.00 | 0.00 | 0.00 | 63 | 1015.4 |
| 20260903000024 | 32 | 261 | 0.0 | 0.0 | 0.00 | 0.00 | 0.00 | 62 | 1015.4 |
| 20260902235523 | 32 | 261 | 0.0 | 1.6 | 0.00 | 0.00 | 0.00 | 62 | 1015.4 |
| 20260902235022 | 32 | 261 | 0.0 | 4.8 | 0.00 | 0.00 | 0.00 | 62 | 1015.4 |
| 20260902234523 | 32 | 261 | 1.6 | 4.8 | 0.00 | 0.00 | 0.00 | 62 | 1015.4 |
| 20260902234024 | 32 | 261 | 3.2 | 9.7 | 0.00 | 0.00 | 0.00 | 61 | 1015.4 |
| 20260902233522 | 32 | 262 | 1.6 | 9.7 | 0.00 | 0.00 | 0.00 | 61 | 1015.4 |
| 20260902233022 | 32 | 261 | 3.2 | 4.8 | 0.00 | 0.00 | 0.00 | 60 | 1015.3 |
| 20260902232521 | 33 | 262 | 3.2 | 6.4 | 0.00 | 0.00 | 0.00 | 60 | 1015.4 |
| 20260902232021 | 33 | 262 | 3.2 | 9.7 | 0.00 | 0.00 | 0.00 | 59 | 1015.4 |
| 20260902231536 | 33 | 262 | 4.8 | 11.3 | 0.00 | 0.00 | 0.00 | 59 | 1015.3 |
| 20260902231024 | 33 | 252 | 4.8 | 12.9 | 0.00 | 0.00 | 0.00 | 59 | 1015.3 |
| 20260902230526 | 33 | 256 | 4.8 | 12.9 | 0.00 | 0.00 | 0.00 | 58 | 1015.4 |
| 20260902230021 | 33 | 213 | 6.4 | 12.9 | 0.00 | 0.00 | 0.00 | 57 | 1015.4 |
| 20260902225524 | 33 | 247 | 6.4 | 12.9 | 0.00 | 0.00 | 0.00 | 57 | 1015.4 |
| 20260902225024 | 33 | 264 | 6.4 | 12.9 | 0.00 | 0.00 | 0.00 | 56 | 1015.4 |
| 20260902224520 | 33 | 234 | 6.4 | 12.9 | 0.00 | 0.00 | 0.00 | 56 | 1015.3 |
| 20260902224024 | 33 | 257 | 8.0 | 14.5 | 0.00 | 0.00 | 0.00 | 56 | 1015.4 |
| 20260902223520 | 33 | 273 | 8.0 | 14.5 | 0.00 | 0.00 | 0.00 | 56 | 1015.4 |
| 20260902223033 | 33 | 267 | 8.0 | 16.1 | 0.00 | 0.00 | 0.00 | 56 | 1015.4 |
| 20260902222521 | 33 | 269 | 6.4 | 16.1 | 0.00 | 0.00 | 0.00 | 56 | 1015.5 |
| 20260902222024 | 34 | 260 | 9.7 | 16.1 | 0.00 | 0.00 | 0.00 | 56 | 1015.4 |
| 20260902221524 | 34 | 250 | 9.7 | 16.1 | 0.00 | 0.00 | 0.00 | 55 | 1015.4 |
| 20260902221018 | 34 | 221 | 9.7 | 16.1 | 0.00 | 0.00 | 0.00 | 55 | 1015.4 |
| 20260902220519 | 34 | 211 | 8.0 | 19.3 | 0.00 | 0.00 | 0.00 | 56 | 1015.5 |
| 20260902220018 | 34 | 234 | 6.4 | 17.7 | 0.00 | 0.00 | 0.00 | 55 | 1015.5 |
| 20260902215517 | 34 | 271 | 9.7 | 14.5 | 0.00 | 0.00 | 0.00 | 56 | 1015.5 |
| 20260902215019 | 34 | 273 | 4.8 | 19.3 | 0.00 | 0.00 | 0.00 | 56 | 1015.4 |
| 20260902214521 | 33 | 268 | 11.3 | 20.9 | 0.00 | 0.00 | 0.00 | 55 | 1015.5 |
| 20260902214017 | 33 | 258 | 12.9 | 20.9 | 0.00 | 0.00 | 0.00 | 56 | 1015.5 |
| 20260902213516 | 33 | 215 | 6.4 | 17.7 | 0.00 | 0.00 | 0.00 | 56 | 1015.5 |
| 20260902213016 | 34 | 230 | 8.0 | 20.9 | 0.00 | 0.00 | 0.00 | 56 | 1015.6 |
| 20260902212516 | 34 | 235 | 9.7 | 25.7 | 0.00 | 0.00 | 0.00 | 56 | 1015.5 |
| 20260902212016 | 34 | 248 | 9.7 | 25.7 | 0.00 | 0.00 | 0.00 | 55 | 1015.6 |
| 20260902211516 | 34 | 275 | 11.3 | 20.9 | 0.00 | 0.00 | 0.00 | 55 | 1015.5 |
| 20260902211014 | 34 | 252 | 4.8 | 14.5 | 0.00 | 0.00 | 0.00 | 55 | 1015.5 |
| 20260902210515 | 34 | 267 | 8.0 | 22.5 | 0.00 | 0.00 | 0.00 | 54 | 1015.6 |
| 20260902210015 | 35 | 248 | 14.5 | 22.5 | 0.00 | 0.00 | 0.00 | 53 | 1015.6 |
| 20260902205514 | 34 | 281 | 6.4 | 14.5 | 0.00 | 0.00 | 0.00 | 55 | 1015.5 |
| 20260902205014 | 35 | 257 | 9.7 | 22.5 | 0.00 | 0.00 | 0.00 | 53 | 1015.6 |
| 20260902204514 | 35 | 275 | 14.5 | 22.5 | 0.00 | 0.00 | 0.00 | 53 | 1015.6 |
| 20260902204014 | 35 | 228 | 6.4 | 20.9 | 0.00 | 0.00 | 0.00 | 54 | 1015.6 |
| 20260902203513 | 35 | 273 | 11.3 | 20.9 | 0.00 | 0.00 | 0.00 | 53 | 1015.6 |
| 20260902203014 | 35 | 227 | 11.3 | 20.9 | 0.00 | 0.00 | 0.00 | 54 | 1015.6 |
| 20260902202512 | 35 | 268 | 9.7 | 17.7 | 0.00 | 0.00 | 0.00 | 53 | 1015.7 |
| 20260902202011 | 35 | 272 | 9.7 | 19.3 | 0.00 | 0.00 | 0.00 | 54 | 1015.7 |
| 20260902201509 | 35 | 277 | 12.9 | 19.3 | 0.00 | 0.00 | 0.00 | 54 | 1015.7 |
| 20260902201008 | 34 | 298 | 11.3 | 16.1 | 0.00 | 0.00 | 0.00 | 53 | 1015.8 |
| 20260902200511 | 35 | 238 | 9.7 | 20.9 | 0.00 | 0.00 | 0.00 | 54 | 1016.0 |
| 20260902200010 | 35 | 254 | 11.3 | 20.9 | 0.00 | 0.00 | 0.00 | 53 | 1016.0 |
| 20260902195506 | 34 | 264 | 11.3 | 20.9 | 0.00 | 0.00 | 0.00 | 55 | 1016.0 |
| 20260902195005 | 34 | 252 | 11.3 | 19.3 | 0.00 | 0.00 | 0.00 | 55 | 1016.0 |
| 20260902194515 | 34 | 257 | 8.0 | 19.3 | 0.00 | 0.00 | 0.00 | 55 | 1016.2 |
| 20260902194005 | 34 | 279 | 9.7 | 16.1 | 0.00 | 0.00 | 0.00 | 58 | 1016.3 |
| 20260902193505 | 33 | 202 | 3.2 | 9.7 | 0.00 | 0.00 | 0.00 | 58 | 1016.3 |
| 20260902193004 | 33 | 206 | 3.2 | 9.7 | 0.00 | 0.00 | 0.00 | 59 | 1016.4 |
| 20260902192504 | 33 | 265 | 6.4 | 19.3 | 0.00 | 0.00 | 0.00 | 57 | 1016.6 |
| 20260902192005 | 34 | 240 | 9.7 | 20.9 | 0.00 | 0.00 | 0.00 | 56 | 1016.6 |
| 20260902191504 | 34 | 283 | 9.7 | 16.1 | 0.00 | 0.00 | 0.00 | 57 | 1016.6 |
| 20260902191006 | 33 | 283 | 6.4 | 14.5 | 0.00 | 0.00 | 0.00 | 57 | 1016.6 |
| 20260902190503 | 33 | 280 | 4.8 | 12.9 | 0.00 | 0.00 | 0.00 | 58 | 1016.7 |
| 20260902190003 | 33 | 269 | 8.0 | 19.3 | 0.00 | 0.00 | 0.00 | 56 | 1016.9 |
| 20260902185503 | 34 | 267 | 8.0 | 20.9 | 0.00 | 0.00 | 0.00 | 55 | 1016.9 |
| 20260902185002 | 34 | 259 | 14.5 | 20.9 | 0.00 | 0.00 | 0.00 | 55 | 1016.9 |
| 20260902184503 | 34 | 238 | 12.9 | 17.7 | 0.00 | 0.00 | 0.00 | 58 | 1016.8 |
| 20260902184002 | 33 | 250 | 4.8 | 16.1 | 0.00 | 0.00 | 0.00 | 58 | 1016.9 |
| 20260902183503 | 34 | 246 | 8.0 | 19.3 | 0.00 | 0.00 | 0.00 | 56 | 1016.9 |
| 20260902183002 | 34 | 257 | 9.7 | 20.9 | 0.00 | 0.00 | 0.00 | 57 | 1017.0 |
| 20260902182502 | 34 | 262 | 8.0 | 16.1 | 0.00 | 0.00 | 0.00 | 59 | 1016.9 |
| 20260902182100 | 34 | 277 | 8.0 | 24.1 | 0.00 | 0.00 | 0.00 | 57 | 1017.0 |
| 20260902181600 | 34 | 240 | 6.4 | 24.1 | 0.00 | 0.00 | 0.00 | 59 | 1017.0 |
| 20260902181059 | 33 | 279 | 6.4 | 22.5 | 0.00 | 0.00 | 0.00 | 57 | 1017.0 |
| 20260902180558 | 34 | 296 | 12.9 | 22.5 | 0.00 | 0.00 | 0.00 | 56 | 1017.0 |
| 20260902180059 | 34 | 205 | 8.0 | 24.1 | 0.00 | 0.00 | 0.00 | 60 | 1017.0 |
| 20260902175558 | 34 | 230 | 11.3 | 24.1 | 0.00 | 0.00 | 0.00 | 58 | 1017.2 |
| 20260902175057 | 33 | 267 | 11.3 | 22.5 | 0.00 | 0.00 | 0.00 | 57 | 1017.1 |
| 20260902174556 | 33 | 244 | 12.9 | 20.9 | 0.00 | 0.00 | 0.00 | 59 | 1017.1 |
| 20260902174057 | 33 | 234 | 11.3 | 20.9 | 0.00 | 0.00 | 0.00 | 60 | 1017.3 |
| 20260902173556 | 33 | 247 | 9.7 | 20.9 | 0.00 | 0.00 | 0.00 | 60 | 1017.2 |
| 20260902173055 | 33 | 209 | 11.3 | 16.1 | 0.00 | 0.00 | 0.00 | 59 | 1017.2 |
| 20260902172554 | 33 | 250 | 14.5 | 19.3 | 0.00 | 0.00 | 0.00 | 60 | 1017.2 |
| 20260902172055 | 33 | 281 | 8.0 | 17.7 | 0.00 | 0.00 | 0.00 | 59 | 1017.4 |
| 20260902171557 | 33 | 252 | 9.7 | 19.3 | 0.00 | 0.00 | 0.00 | 59 | 1017.5 |
| 20260902171057 | 33 | 262 | 11.3 | 17.7 | 0.00 | 0.00 | 0.00 | 63 | 1017.5 |
| 20260902170552 | 33 | 282 | 4.8 | 14.5 | 0.00 | 0.00 | 0.00 | 62 | 1017.5 |
| 20260902170052 | 33 | 284 | 6.4 | 17.7 | 0.00 | 0.00 | 0.00 | 59 | 1017.5 |
| 20260902165552 | 33 | 268 | 11.3 | 20.9 | 0.00 | 0.00 | 0.00 | 58 | 1017.7 |
| 20260902165052 | 33 | 215 | 12.9 | 20.9 | 0.00 | 0.00 | 0.00 | 58 | 1017.7 |
| 20260902164553 | 33 | 273 | 9.7 | 17.7 | 0.00 | 0.00 | 0.00 | 60 | 1017.7 |
| 20260902164049 | 33 | 317 | 4.8 | 17.7 | 0.00 | 0.00 | 0.00 | 61 | 1017.8 |
| 20260902163548 | 33 | 261 | 11.3 | 22.5 | 0.00 | 0.00 | 0.00 | 60 | 1018.0 |
| 20260902163047 | 33 | 248 | 16.1 | 22.5 | 0.00 | 0.00 | 0.00 | 61 | 1018.1 |
| 20260902162545 | 33 | 337 | 4.8 | 19.3 | 0.00 | 0.00 | 0.00 | 61 | 1018.1 |
| 20260902162044 | 33 | 243 | 9.7 | 19.3 | 0.00 | 0.00 | 0.00 | 60 | 1018.1 |
| 20260902161543 | 32 | 215 | 8.0 | 20.9 | 0.00 | 0.00 | 0.00 | 61 | 1018.2 |
| 20260902161041 | 32 | 271 | 11.3 | 16.1 | 0.00 | 0.00 | 0.00 | 61 | 1018.2 |
| 20260902160540 | 32 | 333 | 6.4 | 14.5 | 0.00 | 0.00 | 0.00 | 61 | 1018.2 |
| 20260902160040 | 32 | 274 | 4.8 | 11.3 | 0.00 | 0.00 | 0.00 | 64 | 1018.2 |
| 20260902155538 | 32 | 269 | 4.8 | 14.5 | 0.00 | 0.00 | 0.00 | 64 | 1018.2 |
| 20260902155039 | 32 | 331 | 6.4 | 14.5 | 0.00 | 0.00 | 0.00 | 64 | 1018.3 |
| 20260902154535 | 32 | 339 | 4.8 | 12.9 | 0.00 | 0.00 | 0.00 | 65 | 1018.3 |
| 20260902154035 | 32 | 223 | 6.4 | 12.9 | 0.00 | 0.00 | 0.00 | 64 | 1018.3 |
| 20260902153533 | 32 | 246 | 4.8 | 11.3 | 0.00 | 0.00 | 0.00 | 64 | 1018.2 |
| 20260902153032 | 31 | 267 | 4.8 | 9.7 | 0.00 | 0.00 | 0.00 | 67 | 1018.1 |
| 20260902152529 | 31 | 148 | 3.2 | 12.9 | 0.00 | 0.00 | 0.00 | 67 | 1018.3 |
| 20260902152129 | 31 | 264 | 4.8 | 12.9 | 0.00 | 0.00 | 0.00 | 67 | 1018.3 |
| 20260902151531 | 31 | 259 | 6.4 | 12.9 | 0.00 | 0.00 | 0.00 | 69 | 1018.3 |
| 20260902151026 | 31 | 283 | 3.2 | 12.9 | 0.00 | 0.00 | 0.00 | 71 | 1018.4 |
| 20260902150524 | 30 | 297 | 1.6 | 12.9 | 0.00 | 0.00 | 0.00 | 71 | 1018.5 |
| 20260902150023 | 30 | 271 | 4.8 | 12.9 | 0.00 | 0.00 | 0.00 | 71 | 1018.5 |
| 20260902145522 | 30 | 319 | 6.4 | 12.9 | 0.00 | 0.00 | 0.00 | 72 | 1018.5 |
| 20260902145021 | 30 | 267 | 1.6 | 9.7 | 0.00 | 0.00 | 0.00 | 73 | 1018.4 |
| 20260902144520 | 30 | 209 | 6.4 | 9.7 | 0.00 | 0.00 | 0.00 | 73 | 1018.4 |
| 20260902144017 | 29 | 267 | 6.4 | 11.3 | 0.00 | 0.00 | 0.00 | 74 | 1018.4 |
| 20260902143519 | 29 | 266 | 4.8 | 9.7 | 0.00 | 0.00 | 0.00 | 76 | 1018.4 |
| 20260902143014 | 29 | 274 | 4.8 | 9.7 | 0.00 | 0.00 | 0.00 | 77 | 1018.4 |
| 20260902142516 | 28 | 279 | 3.2 | 11.3 | 0.00 | 0.00 | 0.00 | 78 | 1018.4 |
| 20260902142011 | 28 | 273 | 4.8 | 11.3 | 0.00 | 0.00 | 0.00 | 79 | 1018.4 |
| 20260902141510 | 28 | 294 | 3.2 | 14.5 | 0.00 | 0.00 | 0.00 | 78 | 1018.4 |
| 20260902141009 | 28 | 277 | 6.4 | 14.5 | 0.00 | 0.00 | 0.00 | 79 | 1018.4 |
| 20260902140507 | 27 | 275 | 4.8 | 12.9 | 0.00 | 0.00 | 0.00 | 80 | 1018.3 |
| 20260902140011 | 27 | 271 | 4.8 | 12.9 | 0.00 | 0.00 | 0.00 | 80 | 1018.3 |
| 20260902135504 | 27 | 263 | 3.2 | 12.9 | 0.00 | 0.00 | 0.00 | 81 | 1018.3 |
| 20260902135007 | 27 | 264 | 8.0 | 12.9 | 0.00 | 0.00 | 0.00 | 81 | 1018.3 |
| 20260902134501 | 27 | 230 | 4.8 | 8.0 | 0.00 | 0.00 | 0.00 | 84 | 1018.3 |
| 20260902134059 | 26 | 249 | 4.8 | 8.0 | 0.00 | 0.00 | 0.00 | 84 | 1018.4 |
| 20260902133558 | 26 | 253 | 3.2 | 6.4 | 0.00 | 0.00 | 0.00 | 85 | 1018.4 |
| 20260902133103 | 26 | 241 | 1.6 | 6.4 | 0.00 | 0.00 | 0.00 | 86 | 1018.4 |
| 20260902132555 | 26 | 248 | 1.6 | 9.7 | 0.00 | 0.00 | 0.00 | 87 | 1018.4 |
| 20260902132053 | 25 | 235 | 3.2 | 8.0 | 0.00 | 0.00 | 0.00 | 87 | 1018.4 |
| 20260902131601 | 25 | 221 | 3.2 | 8.0 | 0.00 | 0.00 | 0.00 | 87 | 1018.4 |
| 20260902131053 | 25 | 239 | 3.2 | 11.3 | 0.00 | 0.00 | 0.00 | 87 | 1018.4 |
| 20260902130550 | 25 | 215 | 4.8 | 9.7 | 0.00 | 0.00 | 0.00 | 87 | 1018.4 |
| 20260902130049 | 25 | 209 | 4.8 | 11.3 | 0.00 | 0.00 | 0.00 | 88 | 1018.4 |
| 20260902125549 | 24 | 216 | 6.4 | 11.3 | 0.00 | 0.00 | 0.00 | 88 | 1018.3 |
| 20260902125045 | 24 | 204 | 4.8 | 9.7 | 0.00 | 0.00 | 0.00 | 88 | 1018.3 |
| 20260902124544 | 24 | 244 | 3.2 | 11.3 | 0.00 | 0.00 | 0.00 | 89 | 1018.3 |
| 20260902124042 | 24 | 225 | 6.4 | 11.3 | 0.00 | 0.00 | 0.00 | 89 | 1018.3 |
| 20260902123541 | 23 | 250 | 1.6 | 11.3 | 0.00 | 0.00 | 0.00 | 89 | 1018.3 |
| 20260902123040 | 23 | 225 | 1.6 | 11.3 | 0.00 | 0.00 | 0.00 | 90 | 1018.2 |
| 20260902122538 | 23 | 202 | 6.4 | 11.3 | 0.00 | 0.00 | 0.00 | 90 | 1018.2 |
| 20260902122036 | 23 | 250 | 4.8 | 9.7 | 0.00 | 0.00 | 0.00 | 91 | 1018.3 |
| 20260902121535 | 23 | 257 | 3.2 | 6.4 | 0.00 | 0.00 | 0.00 | 91 | 1018.3 |
| 20260902121034 | 23 | 237 | 3.2 | 8.0 | 0.00 | 0.00 | 0.00 | 91 | 1018.1 |
| 20260902120532 | 23 | 238 | 1.6 | 8.0 | 0.00 | 0.00 | 0.00 | 91 | 1018.1 |
| 20260902120031 | 23 | 200 | 3.2 | 11.3 | 0.00 | 0.00 | 0.00 | 91 | 1018.1 |
| 20260902115532 | 23 | 208 | 6.4 | 11.3 | 0.00 | 0.00 | 0.00 | 91 | 1018.0 |
| 20260902115029 | 23 | 212 | 4.8 | 6.4 | 0.00 | 0.00 | 0.00 | 91 | 1017.8 |
| 20260902114537 | 22 | 204 | 3.2 | 6.4 | 0.00 | 0.00 | 0.00 | 91 | 1017.8 |
| 20260902114030 | 22 | 215 | 3.2 | 6.4 | 0.00 | 0.00 | 0.00 | 91 | 1017.8 |
| 20260902113628 | 22 | 216 | 1.6 | 6.4 | 0.00 | 0.00 | 0.00 | 92 | 1017.7 |
| 20260902113025 | 22 | 217 | 3.2 | 6.4 | 0.00 | 0.00 | 0.00 | 92 | 1017.7 |
| 20260902112525 | 22 | 210 | 1.6 | 6.4 | 0.00 | 0.00 | 0.00 | 92 | 1017.6 |
| 20260902112024 | 22 | 209 | 1.6 | 6.4 | 0.00 | 0.00 | 0.00 | 92 | 1017.6 |
| 20260902111525 | 22 | 209 | 1.6 | 6.4 | 0.00 | 0.00 | 0.00 | 92 | 1017.6 |
| 20260902111022 | 22 | 219 | 1.6 | 4.8 | 0.00 | 0.00 | 0.00 | 91 | 1017.5 |
| 20260902110522 | 22 | 219 | 1.6 | 6.4 | 0.00 | 0.00 | 0.00 | 91 | 1017.5 |
| 20260902110030 | 22 | 219 | 1.6 | 6.4 | 0.00 | 0.00 | 0.00 | 91 | 1017.6 |
| 20260902105521 | 22 | 214 | 0.0 | 4.8 | 0.00 | 0.00 | 0.00 | 91 | 1017.5 |
| 20260902105021 | 22 | 214 | 1.6 | 4.8 | 0.00 | 0.00 | 0.00 | 91 | 1017.4 |
| 20260902104541 | 22 | 214 | 0.0 | 0.0 | 0.00 | 0.00 | 0.00 | 91 | 1017.5 |
| 20260902104022 | 22 | 214 | 0.0 | 0.0 | 0.00 | 0.00 | 0.00 | 91 | 1017.5 |
| 20260902103519 | 22 | 214 | 0.0 | 0.0 | 0.00 | 0.00 | 0.00 | 90 | 1017.4 |
| 20260902103019 | 22 | 214 | 0.0 | 0.0 | 0.00 | 0.00 | 0.00 | 90 | 1017.3 |
| 20260902102518 | 22 | 214 | 0.0 | 0.0 | 0.00 | 0.00 | 0.00 | 90 | 1017.4 |
| 20260902102018 | 22 | 214 | 0.0 | 0.0 | 0.00 | 0.00 | 0.00 | 90 | 1017.3 |
| 20260902101517 | 23 | 214 | 0.0 | 1.6 | 0.00 | 0.00 | 0.00 | 90 | 1017.3 |
| 20260902101018 | 23 | 214 | 0.0 | 3.2 | 0.00 | 0.00 | 0.00 | 89 | 1017.4 |
| 20260902100516 | 23 | 214 | 0.0 | 3.2 | 0.00 | 0.00 | 0.00 | 89 | 1017.3 |
| 20260902100015 | 23 | 214 | 0.0 | 3.2 | 0.00 | 0.00 | 0.00 | 89 | 1017.4 |
| 20260902095515 | 23 | 214 | 0.0 | 3.2 | 0.00 | 0.00 | 0.00 | 89 | 1017.3 |
| 20260902095016 | 23 | 214 | 0.0 | 3.2 | 0.00 | 0.00 | 0.00 | 89 | 1017.4 |
| 20260902094515 | 23 | 214 | 0.0 | 3.2 | 0.00 | 0.00 | 0.00 | 89 | 1017.3 |
| 20260902094015 | 23 | 214 | 0.0 | 4.8 | 0.00 | 0.00 | 0.00 | 89 | 1017.3 |
| 20260902093632 | 23 | 214 | 0.0 | 4.8 | 0.00 | 0.00 | 0.00 | 89 | 1017.3 |
| 20260902093014 | 23 | 213 | 1.6 | 4.8 | 0.00 | 0.00 | 0.00 | 89 | 1017.2 |
| 20260902092513 | 23 | 214 | 1.6 | 6.4 | 0.00 | 0.00 | 0.00 | 88 | 1017.2 |
| 20260902092013 | 23 | 214 | 1.6 | 6.4 | 0.00 | 0.00 | 0.00 | 88 | 1017.3 |
| 20260902091516 | 23 | 214 | 3.2 | 8.0 | 0.00 | 0.00 | 0.00 | 88 | 1017.3 |
| 20260902091012 | 23 | 213 | 1.6 | 11.3 | 0.00 | 0.00 | 0.00 | 89 | 1017.4 |
| 20260902090512 | 23 | 212 | 4.8 | 12.9 | 0.00 | 0.00 | 0.00 | 89 | 1017.3 |
| 20260902090011 | 23 | 209 | 6.4 | 12.9 | 0.00 | 0.00 | 0.00 | 89 | 1017.3 |
| 20260902085510 | 23 | 226 | 1.6 | 6.4 | 0.00 | 0.00 | 0.00 | 89 | 1017.2 |
| 20260902085011 | 23 | 226 | 0.0 | 3.2 | 0.00 | 0.00 | 0.00 | 89 | 1017.1 |
| 20260902084510 | 23 | 226 | 1.6 | 8.0 | 0.00 | 0.00 | 0.00 | 88 | 1017.0 |
| 20260902084016 | 23 | 226 | 3.2 | 8.0 | 0.00 | 0.00 | 0.00 | 88 | 1016.9 |
| 20260902083510 | 23 | 225 | 1.6 | 4.8 | 0.00 | 0.00 | 0.00 | 88 | 1016.9 |
| 20260902083008 | 23 | 225 | 3.2 | 4.8 | 0.00 | 0.00 | 0.00 | 88 | 1016.8 |
| 20260902082508 | 23 | 226 | 3.2 | 4.8 | 0.00 | 0.00 | 0.00 | 88 | 1016.8 |
| 20260902082009 | 23 | 227 | 0.0 | 4.8 | 0.00 | 0.00 | 0.00 | 88 | 1016.8 |
| 20260902081506 | 23 | 227 | 0.0 | 3.2 | 0.00 | 0.00 | 0.00 | 87 | 1016.7 |
| 20260902081006 | 23 | 227 | 0.0 | 3.2 | 0.00 | 0.00 | 0.00 | 87 | 1016.7 |
| 20260902080506 | 23 | 227 | 0.0 | 4.8 | 0.00 | 0.00 | 0.00 | 87 | 1016.7 |
| 20260902080014 | 23 | 227 | 0.0 | 4.8 | 0.00 | 0.00 | 0.00 | 87 | 1016.7 |
| 20260902075506 | 23 | 227 | 1.6 | 4.8 | 0.00 | 0.00 | 0.00 | 87 | 1016.6 |
| 20260902075004 | 23 | 226 | 0.0 | 6.4 | 0.00 | 0.00 | 0.00 | 87 | 1016.6 |
| 20260902074506 | 23 | 226 | 1.6 | 6.4 | 0.00 | 0.00 | 0.00 | 87 | 1016.6 |
| 20260902074003 | 23 | 229 | 1.6 | 6.4 | 0.00 | 0.00 | 0.00 | 87 | 1016.5 |
| 20260902073502 | 24 | 231 | 1.6 | 8.0 | 0.00 | 0.00 | 0.00 | 87 | 1016.4 |
| 20260902073002 | 24 | 233 | 1.6 | 8.0 | 0.00 | 0.00 | 0.00 | 86 | 1016.4 |
| 20260902072501 | 24 | 244 | 1.6 | 6.4 | 0.00 | 0.00 | 0.00 | 87 | 1016.4 |
| 20260902072002 | 24 | 244 | 1.6 | 6.4 | 0.00 | 0.00 | 0.00 | 86 | 1016.4 |
| 20260902071501 | 24 | 257 | 3.2 | 6.4 | 0.00 | 0.00 | 0.00 | 86 | 1016.3 |
| 20260902071001 | 24 | 237 | 3.2 | 8.0 | 0.00 | 0.00 | 0.00 | 86 | 1016.3 |
| 20260902070600 | 24 | 238 | 3.2 | 8.0 | 0.00 | 0.00 | 0.00 | 86 | 1016.3 |
| 20260902070100 | 24 | 234 | 3.2 | 8.0 | 0.00 | 0.00 | 0.00 | 86 | 1016.2 |
| 20260902065600 | 24 | 215 | 3.2 | 8.0 | 0.00 | 0.00 | 0.00 | 86 | 1016.2 |
| 20260902065100 | 24 | 249 | 3.2 | 8.0 | 0.00 | 0.00 | 0.00 | 86 | 1016.3 |
| 20260902064605 | 24 | 248 | 3.2 | 6.4 | 0.00 | 0.00 | 0.00 | 86 | 1016.3 |
| 20260902064059 | 24 | 233 | 3.2 | 8.0 | 0.00 | 0.00 | 0.00 | 86 | 1016.3 |
| 20260902063600 | 24 | 217 | 4.8 | 9.7 | 0.00 | 0.00 | 0.00 | 86 | 1016.3 |
| 20260902063127 | 24 | 217 | 4.8 | 9.7 | 0.00 | 0.00 | 0.00 | 86 | 1016.3 |
| 20260902062557 | 24 | 211 | 4.8 | 9.7 | 0.00 | 0.00 | 0.00 | 86 | 1016.3 |
| 20260902062056 | 25 | 219 | 4.8 | 8.0 | 0.00 | 0.00 | 0.00 | 86 | 1016.4 |
| 20260902061557 | 25 | 220 | 3.2 | 6.4 | 0.00 | 0.00 | 0.00 | 86 | 1016.4 |
| 20260902061055 | 25 | 238 | 3.2 | 6.4 | 0.00 | 0.00 | 0.00 | 86 | 1016.5 |
| 20260902060555 | 25 | 244 | 1.6 | 8.0 | 0.00 | 0.00 | 0.00 | 86 | 1016.5 |